Location: Albuquerque Trailhead
(34.7934°N, 106.3736°W)
Time: 05:34:11
(UTC+00:00)

Cosmos 1980 Rocket - Pass Details

Date: 20 June 2021
Orbit: 830 x 848 km, 71.0° (Epoch: 29 July)

Event Time Altitude Azimuth Distance (km) Brightness Sun altitude
Rises 11:10:33 0° 347° (NNW) 3,378 5.7 -8.1°
Reaches altitude 10° 11:13:09 10° 355° (N) 2,441 5.0 -7.6°
Maximum altitude 11:18:23 40° 64° (ENE) 1,217 3.8 -6.7°
Drops below altitude 10° 11:23:36 10° 133° (SE) 2,435 4.8 -5.9°
Sets 11:26:10 0° 140° (SE) 3,368 5.4 -5.4°
